Regional Weather Roundup
Issued by NWS

Home | Current Version | Previous Version | Graphics & Text | Print | Product List | Glossary On
Versions: 1 2 3 4 5 6 7 8 9 10 11 12 13 14 15 16 17 18 19 20 21 22 23 24 25 26 27 28 29 30 31 32 33 34 35 36 37 38 39 40 41 42 43 44 45 46 47 48 49 50
000
ASUS45 KCYS 221910
RWRWY

WYOMING REGIONAL WEATHER ROUNDUP
NATIONAL WEATHER SERVICE CHEYENNE WY
100 PM MDT FRI SEP 22 2017

NOTE:  "FAIR" INDICATES FEW OR NO CLOUDS BELOW 12,000 FEET
WITH NO SIGNIFICANT WEATHER AND/OR OBSTRUCTIONS TO VISIBILITY.

WYZ001-222000-
YELLOWSTONE NATIONAL PARK

CITY           SKY/WX    TMP DP  RH WIND       PRES   REMARKS
LK YELLOWSTONE NOT AVBL
W YELLOWSTONE  NOT AVBL

$$
WYZ002>013-054>058-071-098>099-222000-
NORTHERN WYOMING

CITY           SKY/WX    TMP DP  RH WIND       PRES   REMARKS
JACKSON        CLOUDY    47  35  63 SW10      29.87F
CODY           CLOUDY    38  36  92 NE9       29.97S WCI  31
GREYBULL       CLOUDY    43  40  89 E3        29.96S
WORLAND        CLOUDY    43  39  86 NE6       29.96S
SHERIDAN       CLOUDY    45  40  82 N3        29.98S
BUFFALO        CLOUDY    43  35  73 N8        29.99R
GILLETTE       CLOUDY    49  38  65 N9        29.93F
HULETT         CLOUDY    50  36  57 N12       29.95S
NEWCASTLE      FAIR      57  37  47 NW20G29   29.87S

$$
WYZ014>020-022>026-101>103-222000-
CENTRAL WYOMING

CITY           SKY/WX    TMP DP  RH WIND       PRES   REMARKS
BIG PINEY      FAIR      53  29  39 SW14G25   29.88F
PINEDALE       CLOUDY    50  36  57 SE12      29.90F
DUBOIS         CLOUDY    36  34  93 SE13      29.92S WCI  27
LANDER           N/A    N/A N/A N/A MISG      29.92F
RIVERTON       CLOUDY    42  38  85 CALM      29.92F
CASPER         FAIR      52  34  50 CALM      29.94F
DOUGLAS        FAIR      57  35  43 N10G22    29.92S

$$
WYZ021-027>030-104>119-222000-
SOUTHERN WYOMING

CITY           SKY/WX    TMP DP  RH WIND       PRES   REMARKS
EVANSTON       PTSUNNY   45  35  68 SW12      29.89S
KEMMERER         N/A     50  32  50 SW13G22   29.89S
FORT BRIDGER   FAIR      50  36  58 W8        29.91F
ROCK SPRINGS   FAIR      51  41  68 NE9       29.88F
DIXON          FAIR      60  35  39 W7        29.92F
RAWLINS        PTSUNNY   53  41  63 W12       29.93F
SARATOGA       FAIR      55  34  44 NW6G20    29.94F
LARAMIE        CLOUDY    51  32  48 N20       29.92S
CHEYENNE       FAIR      66  37  34 NE15      29.88S
TORRINGTON     NOT AVBL
PINE BLUFFS    FAIR      66  37  34 N10       29.87S

$$



USA.gov is the U.S. government's official web portal to all federal, state and local government web resources and services.